This demonstration page uses our WeatherBlox Daily Observations layout. Learn more.

Left ArrowRight Arrow

40.92945, -100.16068

Hourly Observations for January 21, 2021

Temp ( °F °C ) Dew Point ( °F °C ) Humidity (%) Winds ( mph kmh ) Pressure ( in mb ) Visibility ( mi km ) Precip ( " mm )
12:15 am 00:15 Clear 23 -5.1 17 -8.2 79 79 WNW 3 6 30.11 1020 10 16.0934 0 0
12:35 am 00:35 Clear 22 -5.4 17 -8.5 79 79 NW 5 7 30.11 1020 10 16.0934 0 0
12:55 am 00:55 Clear 22 -5.7 17 -8.6 80 80 NNW 5 7 30.11 1020 10 16.0934 0 0
1:15 am 01:15 Clear 22 -5.5 17 -8.6 79 79 Calm 30.11 1020 10 16.0934 0 0
1:35 am 01:35 Clear 22 -5.5 17 -8.4 80 80 NW 3 6 30.11 1020 10 16.0934 0 0
1:55 am 01:55 Clear 22 -5.8 16 -8.7 80 80 WNW 5 7 30.12 1020 10 16.0934 0 0
2:15 am 02:15 Clear 22 -5.8 16 -8.7 80 80 Calm 30.1 1019 10 16.0934 0 0
2:35 am 02:35 Clear 20 -6.5 16 -9.1 82 82 Calm 30.11 1020 10 16.0934 0 0
2:55 am 02:55 Clear 21 -6.1 16 -8.7 82 82 W 3 6 30.11 1020 10 16.0934 0 0
3:15 am 03:15 Clear 21 -6.3 16 -9 81 81 NNW 3 6 30.1 1019 10 16.0934 0 0
3:35 am 03:35 Clear 20 -6.8 15 -9.4 82 82 WNW 5 7 30.11 1020 10 16.0934 0 0
3:55 am 03:55 Clear 20 -6.7 15 -9.2 83 83 NW 5 7 30.09 1019 10 16.0934 0 0
4:15 am 04:15 Clear 21 -6.1 16 -9.1 80 80 NW 7 11 30.09 1019 10 16.0934 0 0
4:35 am 04:35 Clear 20 -6.5 15 -9.5 80 80 WNW 5 7 30.08 1019 10 16.0934 0 0
4:55 am 04:55 Clear 20 -6.8 15 -9.5 81 81 W 5 7 30.1 1019 10 16.0934 0 0
5:15 am 05:15 Clear 20 -6.5 15 -9.4 80 80 WNW 6 9 30.09 1019 10 16.0934 0 0
5:35 am 05:35 Clear 21 -5.9 15 -9.2 78 78 WNW 7 11 30.09 1019 10 16.0934 0 0
5:55 am 05:55 Clear 21 -6.2 15 -9.5 78 78 W 6 9 30.09 1019 10 16.0934 0 0
6:15 am 06:15 Clear 21 -6.3 15 -9.5 78 78 WNW 6 9 30.09 1019 10 16.0934 0 0
6:35 am 06:35 Clear 22 -5.4 15 -9.2 75 75 WNW 7 11 30.09 1019 10 16.0934 0 0
6:55 am 06:55 Clear 21 -6 15 -9.2 78 78 W 6 9 30.1 1019 10 16.0934 0 0
7:15 am 07:15 Clear 22 -5.8 16 -9.1 78 78 W 7 11 30.09 1019 10 16.0934 0 0
7:35 am 07:35 Clear 22 -5.8 16 -9.1 78 78 NW 7 11 30.11 1019 10 16.0934 0 0
7:55 am 07:55 Clear 21 -6.1 15 -9.3 78 78 NW 7 11 30.11 1020 10 16.0934 0 0
8:15 am 08:15 Sunny 22 -5.8 16 -9.1 78 78 W 7 11 30.11 1019 10 16.0934 0 0
8:35 am 08:35 Sunny 23 -5 17 -8.1 79 79 W 8 13 30.11 1020 10 16.0934 0 0
8:55 am 08:55 Sunny 25 -3.9 19 -7.5 76 76 NW 3 6 30.11 1020 10 16.0934 0 0
9:15 am 09:15 Sunny 29 -1.4 20 -6.5 69 69 NW 10 17 30.08 1019 10 16.0934 0 0
9:35 am 09:35 Sunny 35 1.4 21 -6 58 58 NW 14 22 30.07 1018 10 16.0934 0 0
9:55 am 09:55 Sunny 36 2.4 22 -5.7 56 56 NW 14 22 30.06 1018 10 16.0934 0 0
10:15 am 10:15 Sunny 38 3.2 21 -6 51 51 NNW 13 20 30.07 1018 10 16.0934 0 0
10:35 am 10:35 Sunny 37 2.7 20 -6.6 51 51 NNW 10 17 30.08 1019 10 16.0934 0 0
10:55 am 10:55 Sunny 36 2.2 21 -6.1 55 55 NNW 8 13 30.09 1019 10 16.0934 0 0
11:15 am 11:15 Sunny 38 3.5 22 -5.8 51 51 N 8 13 30.07 1018 10 16.0934 0 0
11:35 am 11:35 Sunny 41 5.2 20 -6.9 42 42 N 10 17 30.06 1018 10 16.0934 0 0
11:55 am 11:55 Sunny 43 6 20 -6.7 40 40 N 15 24 30.04 1017 10 16.0934 0 0
12:15 pm 12:15 Sunny 44 6.7 20 -6.9 38 38 N 14 22 30.02 1017 10 16.0934 0 0
12:35 pm 12:35 Sunny 46 7.5 17 -8.4 32 32 N 15 24 30.01 1016 10 16.0934 0 0
12:55 pm 12:55 Sunny 45 7.4 17 -8.3 32 32 NNE 15 24 30.01 1016 10 16.0934 0 0
1:15 pm 13:15 Sunny 45 7.1 18 -7.9 34 34 N 14 22 30.01 1016 10 16.0934 0 0
1:35 pm 13:35 Sunny 46 7.8 18 -7.8 32 32 N 15 24 29.99 1016 10 16.0934 0 0
1:55 pm 13:55 Sunny 46 7.6 17 -8.3 32 32 N 17 28 29.99 1016 10 16.0934 0 0
2:15 pm 14:15 Sunny 45 7.2 17 -8.3 33 33 N 14 22 30 1016 10 16.0934 0 0
2:35 pm 14:35 Sunny 45 7.1 17 -8.5 32 32 N 15 24 30 1016 10 16.0934 0 0
2:55 pm 14:55 Sunny 45 7.1 16 -9.1 31 31 N 15 24 30 1016 10 16.0934 0 0
3:15 pm 15:15 Sunny 45 7.2 15 -9.3 30 30 N 16 26 30.01 1016 10 16.0934 0 0
3:35 pm 15:35 Sunny 45 7.3 16 -9.1 30 30 N 14 22 30.01 1016 10 16.0934 0 0
3:55 pm 15:55 Sunny 45 7.3 16 -8.8 31 31 N 14 22 30.01 1016 10 16.0934 0 0
4:15 pm 16:15 Sunny 44 6.8 17 -8.6 33 33 N 14 22 30.02 1017 10 16.0934 0 0
4:35 pm 16:35 Sunny 44 6.4 16 -9 33 33 NNE 13 20 30.02 1017 10 16.0934 0 0
4:55 pm 16:55 Sunny 43 6 16 -9 34 34 NNE 12 19 30.04 1017 10 16.0934 0 0
5:15 pm 17:15 Sunny 40 4.7 16 -9 37 37 NNE 9 15 30.05 1018 10 16.0934 0 0
5:35 pm 17:35 Sunny 37 3 16 -8.8 42 42 NNE 7 11 30.09 1019 10 16.0934 0 0
5:55 pm 17:55 Clear 37 2.8 15 -9.2 41 41 NNE 8 13 30.09 1019 10 16.0934 0 0
6:15 pm 18:15 Clear 34 1.3 15 -9.3 46 46 NNE 7 11 30.11 1020 10 16.0934 0 0
6:35 pm 18:35 Clear 31 -0.3 15 -9.5 50 50 N 6 9 30.14 1021 10 16.0934 0 0
6:55 pm 18:55 Clear 30 -1.2 16 -9.1 55 55 N 7 11 30.15 1021 10 16.0934 0 0
7:15 pm 19:15 Clear 29 -1.4 16 -9 57 57 NNE 5 7 30.16 1021 10 16.0934 0 0
7:35 pm 19:35 Clear 30 -1.2 16 -9.1 55 55 Calm 30.16 1021 10 16.0934 0 0
7:55 pm 19:55 Partly Cloudy 29 -1.7 17 -8.1 62 62 Calm 30.17 1022 10 16.0934 0 0
8:15 pm 20:15 Mostly Cloudy 29 -1.4 17 -8.2 60 60 Calm 30.18 1022 10 16.0934 0 0
8:35 pm 20:35 Mostly Cloudy 28 -2.1 18 -8 64 64 N 5 7 30.2 1023 10 16.0934 0 0
8:55 pm 20:55 Partly Cloudy 28 -2.1 17 -8.6 61 61 N 7 11 30.2 1023 10 16.0934 0 0
9:15 pm 21:15 Partly Cloudy 27 -3 17 -8.5 66 66 NNE 6 9 30.22 1023 10 16.0934 0 0
9:35 pm 21:35 Mostly Cloudy 27 -2.8 18 -8 68 68 NNE 3 6 30.23 1024 10 16.0934 0 0
9:55 pm 21:55 Cloudy 27 -3 18 -8 69 69 NNE 6 9 30.23 1024 10 16.0934 0 0
10:15 pm 22:15 Cloudy 28 -2 17 -8.5 61 61 NNE 5 7 30.23 1024 10 16.0934 0 0
10:35 pm 22:35 Partly Cloudy 28 -2.1 17 -8.5 62 62 NNE 6 9 30.23 1024 10 16.0934 0 0
10:55 pm 22:55 Clear 29 -1.8 17 -8.5 61 61 NE 6 9 30.23 1024 10 16.0934 0 0
11:15 pm 23:15 Mostly Cloudy 29 -1.9 17 -8.4 62 62 NNE 6 9 30.23 1024 10 16.0934 0 0
11:35 pm 23:35 Mostly Cloudy 28 -2 17 -8.1 63 63 NNE 7 11 30.24 1024 10 16.0934 0 0
11:55 pm 23:55 Cloudy 30 -1.3 17 -8.2 60 60 NE 7 11 30.23 1024 10 16.0934 0 0

Powered by AerisWeather